This is the latest recevied weather packets stored in our database for station/object K1BWE-1. If no packets are shown the sender has not sent any weather packets the latest 10 day(s).
| Time | Temp. | Humidity | Pressure | Rain* | Wind** | Luminosity | Snow |
|---|---|---|---|---|---|---|---|
| 1777728344 | 17.22° C | 34% | 1015.6 hPa | 0 mm | - | 30 W/m² | - |
| 1777728041 | 17.22° C | 35% | 1015.9 hPa | 0 mm | - | 29 W/m² | - |
| 1777727738 | 16.67° C | 36% | 1015.8 hPa | 0 mm | - | 26 W/m² | - |
| 1777727434 | 15° C | 38% | 1015.4 hPa | 0 mm | - | 26 W/m² | - |
| 1777727132 | 13.89° C | 39% | 1015.6 hPa | 0 mm | - | 21 W/m² | - |
| 1777726830 | 13.33° C | 40% | 1015.2 hPa | 0 mm | - | 16 W/m² | - |
| 1777726526 | 13.33° C | 40% | 1015.3 hPa | 0 mm | - | 12 W/m² | - |
| 1777726224 | 13.33° C | 40% | 1015.5 hPa | 0 mm | - | 9 W/m² | - |
| 1777725920 | 12.78° C | 40% | 1015.2 hPa | 0 mm | - | 6 W/m² | - |
| 1777725617 | 13.33° C | 39% | 1015.2 hPa | 0 mm | - | 3 W/m² | - |
| 1777725315 | 12.78° C | 40% | 1015.2 hPa | 0 mm | - | 1 W/m² | - |
| 1777725012 | 12.78° C | 40% | 1014.9 hPa | 0 mm | - | 0 W/m² | - |
| 1777724708 | 13.33° C | 40% | 1015.1 hPa | 0 mm | - | 0 W/m² | - |
| 1777724406 | 12.78° C | 40% | 1014.9 hPa | 0 mm | - | 0 W/m² | - |
| 1777724103 | 13.33° C | 40% | 1014.9 hPa | 0 mm | - | 0 W/m² | - |
| 1777723800 | 13.89° C | 39% | 1014.8 hPa | 0 mm | - | 0 W/m² | - |
| 1777723496 | 13.33° C | 40% | 1014.9 hPa | 0 mm | - | 0 W/m² | - |
| 1777723194 | 12.78° C | 41% | 1014.8 hPa | 0 mm | - | 0 W/m² | - |
| 1777722891 | 12.78° C | 41% | 1015 hPa | 0 mm | - | 0 W/m² | - |
| 1777722587 | 12.78° C | 40% | 1014.8 hPa | 0 mm | - | 0 W/m² | - |
| 1777722284 | 13.89° C | 39% | 1014.7 hPa | 0 mm | - | 0 W/m² | - |
| 1777721981 | 14.44° C | 38% | 1014.8 hPa | 0 mm | - | 0 W/m² | - |
| 1777721678 | 13.89° C | 38% | 1015 hPa | 0 mm | - | 0 W/m² | - |
| 1777721377 | 13.89° C | 40% | 1015 hPa | 0 mm | - | 0 W/m² | - |
| 1777721074 | 14.44° C | 39% | 1015.1 hPa | 0 mm | - | 0 W/m² | - |
* Rain latest hour (hover to see other rain measurements)
** Current wind speed in m/s (hover to see current wind gust speed)